{"data":{"norad_id":52477,"epoch":"2026-05-25T04:04:06.877920Z","epoch_age_seconds":63618,"freshness":"FRESH","line1":"1 52477U 22049AC  26145.16952405  .00000298  00000+0  36818-4 0  9990","line2":"2 52477  53.2140  65.7891 0001091 104.8266 255.2847 15.08844617225170","mean_motion":15.08844617,"eccentricity":0.0001091,"inclination_deg":53.214,"raan_deg":65.7891,"arg_perigee_deg":104.8266,"mean_anomaly_deg":255.2847,"bstar":3.6818e-5,"rev_number":22517,"period_min":95.43726264293,"perigee_km":538.97453746736,"apogee_km":540.48401588893,"semimajor_km":6917.8662766781,"source":"CELESTRAK","updated_at":"2026-05-25T13:38:17.154735Z"}}